Weather History for Ely, NV

Change the Weather History Date:

Friday, September 27, 2013

  Actual Average Record
Temperature  
Mean Temperature 40 °F 52 °F  
Max Temperature 54 °F 71 °F 90 °F (2010)
Min Temperature 26 °F 33 °F 17 °F (1948)
Degree Days  
Heating Degree Days 25 13  
Month to date heating degree days 182 210  
Since 1 July heating degree days 190 274  
Cooling Degree Days 0 0  
Month to date cooling degree days 17 4  
Year to date cooling degree days 387 216  
Moisture  
Dew Point 27 °F    
Average Humidity 59    
Maximum Humidity 92    
Minimum Humidity 26    
Precipitation  
Precipitation 0.01 in 0.03 in 0.80 in (1894)
Month to date precipitation 1.71 0.74  
Year to date precipitation 5.86 7.38  
Snow  
Snow 0.00 in 0.00 in 1.80 in (1982)
Month to date snowfall T 0.3  
Since 1 July snowfall T 0.3  
Since 1 September snowfall T 0.3  
Snow Depth 0.00 in    
Sea Level Pressure  
Sea Level Pressure 30.05 in    
Wind  
Wind Speed 8 mph (NW)    
Max Wind Speed 16 mph    
Max Gust Speed 23 mph    
Visibility 10 miles    
Events Rain    
T = Trace of Precipitation, MM = Missing Value Source: NWS Daily Summary

Daily Weather History Graph

Daily Weather History Graph

Search for Another Location

Airport:

Trip Planner

Search our weather history database for the weather conditions in past years. The results will help you decide how hot, cold, wet, or windy it might be!

Date:

Astronomy

Sep. 27, 2013 Rise Set
Actual Time 6:31 AM PDT 6:27 PM PDT
Civil Twilight 6:05 AM PDT 6:54 PM PDT
Nautical Twilight 5:34 AM PDT 7:25 PM PDT
Astronomical Twilight 5:02 AM PDT 7:57 PM PDT
Moon No Moon Rise 2:07 PM PDT (9/27)
Length of Visible Light 12h 49m
Length of Day
11h 55m
Last Quarter, 44% of the Moon is Illuminated
Sep 27
Last Quarter
Oct 4
New
Oct 11
First Quarter
Oct 18
Full
Oct 26
Last Quarter

Hourly Weather History & Observations

Time (PDT) Temp. Windchill Dew Point Humidity Pressure Visibility Wind Dir Wind Speed Gust Speed Precip Events Conditions
12:53 AM 36.0 °F 31.1 °F 32.0 °F 86% 29.92 in 10.0 mi WNW 5.8 mph - N/A   Overcast
1:53 AM 35.1 °F 31.0 °F 32.0 °F 89% 29.95 in 10.0 mi WNW 4.6 mph - N/A   Mostly Cloudy
2:03 AM 35.6 °F 31.7 °F 32.0 °F 87% 29.99 in 10.0 mi WNW 4.6 mph - N/A   Mostly Cloudy
2:36 AM 35.6 °F 32.8 °F 32.0 °F 87% 30.00 in 10.0 mi NW 3.5 mph - N/A   Overcast
2:53 AM 35.1 °F 31.0 °F 30.9 °F 85% 29.95 in 10.0 mi NNW 4.6 mph - N/A   Mostly Cloudy
3:53 AM 37.0 °F 34.5 °F 32.0 °F 82% 29.94 in 10.0 mi NW 3.5 mph - N/A   Overcast
4:12 AM 37.4 °F - 33.8 °F 87% 30.02 in 10.0 mi Calm Calm - N/A   Overcast
4:21 AM 37.4 °F - 33.8 °F 87% 30.02 in 10.0 mi Calm Calm - N/A   Overcast
4:53 AM 37.0 °F 33.3 °F 32.0 °F 82% 29.95 in 10.0 mi North 4.6 mph - N/A   Overcast
5:53 AM 34.0 °F 29.8 °F 32.0 °F 92% 30.01 in 10.0 mi NNW 4.6 mph - 0.01 in Rain Light Rain
6:00 AM 33.8 °F 30.8 °F 32.0 °F 93% 30.05 in 10.0 mi Variable 3.5 mph - N/A   Mostly Cloudy
6:53 AM 34.0 °F 29.8 °F 30.9 °F 89% 30.05 in 10.0 mi North 4.6 mph - N/A   Partly Cloudy
7:53 AM 36.0 °F - 33.1 °F 89% 30.05 in 10.0 mi Calm Calm - N/A   Mostly Cloudy
8:53 AM 42.1 °F 35.2 °F 30.9 °F 65% 30.04 in 10.0 mi North 12.7 mph 16.1 mph N/A   Overcast
9:53 AM 42.1 °F 37.1 °F 28.0 °F 58% 30.06 in 10.0 mi NNW 8.1 mph - N/A   Overcast
10:53 AM 43.0 °F 38.8 °F 27.0 °F 53% 30.06 in 10.0 mi NW 6.9 mph - N/A   Mostly Cloudy
11:53 AM 46.9 °F - 24.1 °F 41% 30.06 in 10.0 mi NW 6.9 mph - N/A   Scattered Clouds
12:53 PM 50.0 °F - 23.0 °F 35% 30.05 in 10.0 mi West 10.4 mph - N/A   Scattered Clouds
1:53 PM 52.0 °F - 23.0 °F 32% 30.04 in 10.0 mi NW 10.4 mph 23.0 mph N/A   Clear
2:53 PM 52.0 °F - 21.9 °F 31% 30.04 in 10.0 mi NW 13.8 mph 18.4 mph N/A   Clear
3:53 PM 53.1 °F - 21.0 °F 29% 30.04 in 10.0 mi West 10.4 mph - N/A   Clear
4:53 PM 53.1 °F - 19.0 °F 26% 30.06 in 10.0 mi WNW 11.5 mph - N/A   Clear
5:53 PM 50.0 °F - 19.9 °F 31% 30.10 in 10.0 mi NW 10.4 mph - N/A   Clear
6:53 PM 43.0 °F 38.2 °F 21.0 °F 42% 30.14 in 10.0 mi West 8.1 mph - N/A   Clear
7:53 PM 41.0 °F 36.4 °F 21.0 °F 45% 30.16 in 10.0 mi West 6.9 mph - N/A   Clear
8:53 PM 37.0 °F 34.5 °F 19.9 °F 50% 30.16 in 10.0 mi SE 3.5 mph - N/A   Clear
9:53 PM 30.9 °F 22.8 °F 19.9 °F 64% 30.20 in 10.0 mi SSE 9.2 mph - N/A   Clear
10:53 PM 30.0 °F 21.1 °F 19.9 °F 66% 30.21 in 10.0 mi South 10.4 mph - N/A   Clear
11:53 PM 28.9 °F 21.1 °F 19.0 °F 67% 30.20 in 10.0 mi South 8.1 mph - N/A   Clear